Location: Le Rocchette
(44.3500°N, 7.8333°E)
Time: 10:58:06
(UTC+00:00)

Cosmos 2100 Rocket - Pass Details

Date: 17 November 2019
Orbit: 956 x 1001 km, 82.9° (Epoch: 12 December)

Event Time Altitude Azimuth Distance (km) Brightness Sun altitude
Rises 04:38:50 0° 192° (SSW) 3,652 7.0 -19.2°
Reaches altitude 10° 04:41:21 10° 195° (SSW) 2,703 6.3 -18.7°
Maximum altitude 04:47:31 72° 279° (W) 1,010 3.9 -17.6°
Drops below altitude 10° 04:53:41 10° 4° (N) 2,699 6.3 -16.6°
Sets 04:56:12 0° 7° (N) 3,647 7.0 -16.1°
